Weather reports worldwide

Advertisment
Yeovilton, United Kingdom (3853): temperature & dewpoint: 15.05.2019 04:00:00 - 21.05.2019 04:00:00 (BST)Yeovilton, United Kingdom (3853): temperature -20cm & temperature -100cm: 15.05.2019 04:00:00 - 21.05.2019 04:00:00 (BST)Yeovilton, United Kingdom (3853): wind speed: 15.05.2019 04:00:00 - 21.05.2019 04:00:00 (BST)Yeovilton, United Kingdom (3853): wind direction: 15.05.2019 04:00:00 - 21.05.2019 04:00:00 (BST)Yeovilton, United Kingdom (3853): reduced air pressure: 15.05.2019 04:00:00 - 21.05.2019 04:00:00 (BST)Yeovilton, United Kingdom (3853): visibility: 15.05.2019 04:00:00 - 21.05.2019 04:00:00 (BST)Yeovilton, United Kingdom (3853): sunshine duration: 15.05.2019 04:00:00 - 21.05.2019 04:00:00 (BST)Yeovilton, United Kingdom (3853): precipitation: 15.05.2019 04:00:00 - 21.05.2019 04:00:00 (BST)
Date & Time tt [°C] td [°C] tt -20cm [°C] tt -100cm [°C] ff [km/h] ff [kn] dd ppp [hPa] vv [km] sd [min] rr [mm]
21.05.2019 04:00:00 5,9 4,4 - - 2 1 WSW 1018,0 15 0 0,0
21.05.2019 03:00:00 7,4 6,2 - - 2 1 WSW 1017,7 10 0 0,0
21.05.2019 02:00:00 8,1 6,7 - - 4 2 SSW 1017,2 10 0 0,0
21.05.2019 01:00:00 8,5 6,3 - - 0 0 N 1017,1 15 - 0,0
21.05.2019 00:00:00 9,1 5,9 - - 8 4 W 1017,0 10 0 0,0
20.05.2019 23:00:00 11,3 7,2 - - 5 3 WSW 1016,7 10 0 0,0
20.05.2019 22:00:00 13,2 7,3 - - 9 5 WNW 1016,3 15 0 0,0
20.05.2019 21:00:00 14,5 7,6 - - 15 8 WNW 1015,5 25 12 0,0
20.05.2019 20:00:00 16,0 7,0 - - 15 8 WNW 1015,0 10 54 0,0
20.05.2019 19:00:00 16,1 6,7 - - 21 11 WNW 1014,8 25 48 0,0
20.05.2019 18:00:00 18,0 8,5 - - 21 11 NW 1014,3 10 60 0,0
20.05.2019 17:00:00 19,0 6,5 - - 11 6 NNW 1013,9 10 42 0,0
20.05.2019 16:00:00 19,0 5,4 - - 15 8 WNW 1014,0 10 42 0,0
20.05.2019 15:00:00 17,9 6,1 - - 15 8 WNW 1013,8 10 30 0,0
20.05.2019 14:00:00 17,4 7,5 - - 13 7 WNW 1014,0 10 18 0,0
20.05.2019 13:00:00 17,8 8,7 - - 5 3 N 1013,8 10 54 0,0
20.05.2019 12:00:00 17,3 9,0 - - 11 6 N 1013,8 10 60 0,0
20.05.2019 11:00:00 15,5 9,5 - - 9 5 N 1013,9 10 30 0,0
20.05.2019 10:00:00 13,9 9,2 14,7 12,7 9 5 N 1014,0 10 36 0,0
20.05.2019 09:00:00 13,1 9,7 - - 11 6 N 1013,9 10 12 0,0
20.05.2019 08:00:00 11,8 9,4 - - 8 4 NNW 1013,5 10 0 0,0
20.05.2019 07:00:00 10,7 8,7 - - 4 2 NW 1012,9 20 0 0,0
20.05.2019 06:00:00 10,3 9,0 - - 5 3 NW 1012,4 10 0 0,0
20.05.2019 05:00:00 10,3 9,2 - - 5 3 WNW 1012,4 10 0 0,0
20.05.2019 04:00:00 11,2 9,3 - - 4 2 WNW 1012,2 10 0 0,0
20.05.2019 03:00:00 11,6 10,3 - - 8 4 NW 1012,1 15 0 0,0
20.05.2019 02:00:00 12,2 10,5 - - 8 4 N 1012,0 10 0 0,0
20.05.2019 01:00:00 11,7 10,6 - - 4 2 W 1012,2 17 - 0,0
20.05.2019 00:00:00 11,7 10,2 - - 2 1 W 1012,2 17 0 0,0
19.05.2019 23:00:00 12,3 10,7 - - 5 3 N 1012,2 45 0 0,0
19.05.2019 22:00:00 12,3 10,5 - - 8 4 WNW 1011,9 35 0 0,0
19.05.2019 21:00:00 13,0 11,1 - - 11 6 NW 1011,7 35 0 0,2
19.05.2019 20:00:00 13,7 11,6 - - 9 5 NW 1011,3 21 0 0,4
19.05.2019 19:00:00 13,4 10,4 - - 8 4 NNW 1010,8 10 0 0,0
19.05.2019 18:00:00 13,1 10,6 - - 8 4 SW 1010,8 27 0 0,4
19.05.2019 17:00:00 14,0 9,5 - - 13 7 ESE 1010,8 30 0 0,0
19.05.2019 16:00:00 16,4 10,2 - - 18 10 N 1010,6 35 0 0,0
19.05.2019 15:00:00 16,7 10,2 - - 15 8 N 1010,5 10 0 0,0
19.05.2019 14:00:00 16,6 10,2 - - 16 9 NNW 1010,4 27 0 0,0
19.05.2019 13:00:00 15,6 9,9 - - 15 8 NW 1010,4 26 0 0,0
19.05.2019 12:00:00 15,7 10,3 - - 15 8 WNW 1010,2 23 12 0,0
19.05.2019 11:00:00 15,7 10,4 - - 9 5 NNW 1010,2 23 30 0,0
19.05.2019 10:00:00 14,3 10,3 14,0 12,7 9 5 N 1010,2 23 54 0,0
19.05.2019 09:00:00 13,2 10,0 - - 5 3 N 1009,9 10 60 0,0
19.05.2019 08:00:00 10,8 9,9 - - 4 2 NW 1009,7 22 54 0,0
19.05.2019 07:00:00 6,9 6,6 - - 0 0 N 1009,6 10 0 0,0
19.05.2019 06:00:00 5,5 5,0 - - 2 1 S 1009,7 12 0 0,0
19.05.2019 05:00:00 4,9 4,2 - - 4 2 SSE 1009,5 6 0 0,0
19.05.2019 04:00:00 5,7 5,1 - - 4 2 SSE 1009,3 3,8 0 0,0
19.05.2019 03:00:00 6,2 5,4 - - 0 0 N 1009,0 6 0 0,0
19.05.2019 02:00:00 7,7 6,7 - - 2 1 SSE 1009,1 12 0 0,0
19.05.2019 01:00:00 8,0 6,6 - - 2 1 ESE 1009,0 10 - 0,0
19.05.2019 00:00:00 8,9 7,0 - - 4 2 N 1009,0 10 0 0,0
18.05.2019 23:00:00 10,1 7,2 - - 5 3 W 1008,9 10 0 0,0
18.05.2019 22:00:00 10,9 7,8 - - 11 6 W 1009,1 23 0 0,0
18.05.2019 21:00:00 12,2 7,5 - - 5 3 WNW 1008,4 30 0 0,0
18.05.2019 20:00:00 14,4 8,4 - - 15 8 NW 1007,9 26 0 0,0
18.05.2019 19:00:00 15,3 8,4 - - 5 3 W 1007,4 28 0 0,0
18.05.2019 18:00:00 15,2 8,3 - - 5 3 N 1007,2 22 0 0,0
18.05.2019 17:00:00 15,1 7,9 - - 9 5 NNW 1007,0 35 0 0,0
18.05.2019 16:00:00 15,1 9,0 - - 11 6 NW 1007,0 23 0 0,0
18.05.2019 15:00:00 14,8 9,5 - - 13 7 WNW 1006,9 10 0 0,0
18.05.2019 14:00:00 15,2 8,0 - - 8 4 NW 1006,7 15 0 0,0
18.05.2019 13:00:00 15,2 8,3 - - 11 6 NNW 1006,7 21 0 0,0
18.05.2019 12:00:00 14,5 8,1 - - 8 4 NNE 1006,8 30 0 0,0
18.05.2019 11:00:00 14,2 9,3 - - 8 4 NE 1006,9 17 0 0,0
18.05.2019 10:00:00 12,6 7,9 14,0 12,7 5 3 N 1006,8 35 0 0,0
18.05.2019 09:00:00 11,5 8,3 - - 5 3 NE 1006,8 35 0 0,0
18.05.2019 08:00:00 10,5 8,1 - - 4 2 ENE 1006,6 22 0 0,0
18.05.2019 07:00:00 10,1 7,5 - - 9 5 NNW 1006,5 30 0 0,2
18.05.2019 06:00:00 10,3 7,2 - - 5 3 N 1006,4 14 0 0,0
18.05.2019 05:00:00 10,2 7,3 - - 8 4 NE 1006,2 45 0 0,0
18.05.2019 04:00:00 10,4 7,0 - - 8 4 N 1006,5 50 0 0,0
18.05.2019 03:00:00 10,3 7,2 - - 8 4 NNE 1006,7 45 0 0,0
18.05.2019 02:00:00 10,9 7,5 - - 5 3 N 1007,0 40 0 0,0
18.05.2019 01:00:00 11,1 8,3 - - 8 4 N 1007,2 30 - 0,0
18.05.2019 00:00:00 11,5 8,8 - - 11 6 N 1007,4 22 0 0,0
17.05.2019 23:00:00 11,7 9,7 - - 11 6 NNW 1007,6 14 0 0,0
17.05.2019 22:00:00 12,2 9,9 - - 8 4 NW 1007,8 18 0 0,0
17.05.2019 21:00:00 12,7 10,1 - - 8 4 N 1007,6 17 0 0,0
17.05.2019 20:00:00 12,5 10,4 - - 5 3 W 1007,4 14 0 0,0
17.05.2019 19:00:00 12,5 10,1 - - 11 6 N 1007,6 15 0 0,0
17.05.2019 18:00:00 12,9 9,8 - - 13 7 NNW 1007,8 24 0 0,0
17.05.2019 17:00:00 13,1 9,9 - - 15 8 N 1008,1 26 0 0,0
17.05.2019 16:00:00 12,8 9,2 - - 18 10 NNE 1008,7 12 0 0,0
17.05.2019 15:00:00 12,9 9,0 - - 18 10 NNE 1008,9 15 0 0,0
17.05.2019 14:00:00 13,6 9,5 - - 21 11 NNE 1009,0 15 0 0,0
17.05.2019 13:00:00 12,1 9,0 - - 18 10 NNE 1009,5 15 0 0,0
17.05.2019 12:00:00 10,7 8,4 - - 15 8 NNE 1009,8 15 0 0,0
17.05.2019 11:00:00 11,0 8,4 - - 11 6 N 1009,9 10 0 0,0
17.05.2019 10:00:00 10,3 8,5 14,0 12,4 11 6 NNW 1010,2 10 0 0,0
17.05.2019 09:00:00 9,4 8,1 - - 9 5 N 1010,6 8 0 0,0
17.05.2019 08:00:00 9,1 6,9 - - 8 4 NNE 1011,2 8 0 0,0
17.05.2019 07:00:00 7,5 5,8 - - 8 4 N 1011,5 8 0 0,0
17.05.2019 06:00:00 7,3 5,3 - - 8 4 NE 1011,7 8 0 0,0
17.05.2019 05:00:00 6,6 3,6 - - 5 3 N 1011,7 10 0 0,0
17.05.2019 04:00:00 5,8 2,6 - - 4 2 NNW 1012,2 10 0 0,0
17.05.2019 03:00:00 7,3 3,1 - - 2 1 NNE 1012,5 10 0 0,0
17.05.2019 02:00:00 7,8 3,0 - - 9 5 NNE 1013,0 10 0 0,0
17.05.2019 01:00:00 8,8 3,2 - - 9 5 ENE 1013,6 10 - 0,0
17.05.2019 00:00:00 8,4 2,5 - - 4 2 NE 1014,1 10 0 0,0
16.05.2019 23:00:00 10,1 3,2 - - 5 3 ENE 1014,5 10 0 0,0
16.05.2019 22:00:00 11,6 5,0 - - 11 6 E 1014,6 10 0 0,0
16.05.2019 21:00:00 12,9 5,1 - - 4 2 NW 1014,4 10 0 0,0
16.05.2019 20:00:00 14,6 4,2 - - 5 3 SSE 1014,5 10 0 0,0
16.05.2019 19:00:00 15,5 4,4 - - 9 5 SE 1014,8 10 0 0,0
16.05.2019 18:00:00 16,9 5,1 - - 11 6 SSE 1014,8 15 0 0,0
16.05.2019 17:00:00 17,7 4,4 - - 8 4 SE 1015,0 15 0 0,0
16.05.2019 16:00:00 17,7 4,0 - - 13 7 E 1015,7 10 30 0,0
16.05.2019 15:00:00 17,6 3,2 - - 18 10 ESE 1016,5 15 60 0,0
16.05.2019 14:00:00 17,7 2,9 - - 15 8 ESE 1017,3 15 48 0,0
16.05.2019 13:00:00 16,8 4,1 - - 16 9 E 1018,1 15 0 0,0
16.05.2019 12:00:00 16,0 5,0 - - 15 8 ESE 1018,6 15 6 0,0
16.05.2019 11:00:00 15,0 4,7 - - 16 9 E 1019,0 10 42 0,0
16.05.2019 10:00:00 13,4 6,2 14,0 12,2 15 8 E 1019,6 10 24 0,0
16.05.2019 09:00:00 12,2 6,3 - - 16 9 ENE 1019,7 10 60 0,0
16.05.2019 08:00:00 10,4 6,1 - - 9 5 ENE 1020,1 10 54 0,0
16.05.2019 07:00:00 7,3 3,9 - - 2 1 WSW 1020,0 10 12 0,0
16.05.2019 06:00:00 6,5 2,8 - - 4 2 N 1020,1 10 0 0,0
16.05.2019 05:00:00 6,1 2,5 - - 5 3 ENE 1020,3 15 0 0,0
16.05.2019 04:00:00 6,9 2,8 - - 5 3 ENE 1021,1 10 0 0,0
16.05.2019 03:00:00 7,8 3,0 - - 5 3 NE 1021,3 10 0 0,0
16.05.2019 02:00:00 7,9 2,9 - - 5 3 ENE 1021,6 10 0 0,0
16.05.2019 01:00:00 7,7 2,6 - - 2 1 WNW 1022,0 10 - 0,0
16.05.2019 00:00:00 10,9 2,0 - - 4 2 E 1022,5 10 0 0,0
15.05.2019 23:00:00 11,4 2,3 - - 5 3 ESE 1022,8 10 0 0,0
15.05.2019 22:00:00 12,4 4,5 - - 5 3 ESE 1022,9 10 0 0,0
15.05.2019 21:00:00 13,2 5,1 - - 9 5 SE 1022,9 10 18 0,0
15.05.2019 20:00:00 16,6 5,4 - - 8 4 SSW 1022,8 10 60 0,0
15.05.2019 19:00:00 18,4 5,1 - - 9 5 SE 1022,7 10 54 0,0
15.05.2019 18:00:00 19,0 6,5 - - 11 6 SSE 1023,2 10 42 0,0
15.05.2019 17:00:00 18,9 5,1 - - 11 6 SE 1023,5 10 42 0,0
15.05.2019 16:00:00 19,4 4,5 - - 11 6 ESE 1024,0 10 30 0,0
15.05.2019 15:00:00 19,4 5,7 - - 15 8 E 1024,5 10 60 0,0
15.05.2019 14:00:00 18,7 5,1 - - 13 7 ESE 1024,9 10 60 0,0
15.05.2019 13:00:00 18,2 5,9 - - 13 7 SE 1025,7 10 60 0,0
15.05.2019 12:00:00 17,4 5,8 - - 15 8 E 1026,2 10 60 0,0
15.05.2019 11:00:00 15,9 6,3 - - 13 7 E 1026,6 10 60 0,0
15.05.2019 10:00:00 14,2 7,6 13,7 12,0 9 5 E 1027,0 15 54 0,0
15.05.2019 09:00:00 11,7 6,6 - - 8 4 E 1027,3 10 60 0,0
15.05.2019 08:00:00 10,2 6,1 - - 5 3 ESE 1027,3 10 60 0,0
15.05.2019 07:00:00 8,0 4,0 - - 2 1 NNE 1027,6 15 42 0,0
15.05.2019 06:00:00 5,2 1,2 - - 8 4 NNE 1027,6 10 0 0,0
15.05.2019 05:00:00 5,0 -0,5 - - 8 4 NE 1027,6 10 0 0,0
15.05.2019 04:00:00 6,3 0,4 - - 2 1 N 1028,0 10 0 0,0

tt = temperature
td = dewpoint
tt -20cm = temperature -20cm
tt -100cm = temperature -100cm
ff = wind speed
dd = wind direction
ppp = reduced air pressure
vv = visibility
sd = sunshine duration
rr = precipitation

Next stations